owner,sensor,date,latitude,longitude,vertical_datum,wind_speed,wind_to_direction,wind_speed_of_gust,qcFlag 
TABS,ioos:station:TABS:H:1,2005-09-01T00:00:00Z,27.8674,-96.5433,4.0,5.501454353,134.5584557,6.92,'11111222,11111222,11111222' 
TABS,ioos:station:TABS:H:1,2005-09-01T00:30:00Z,27.8674,-96.5433,4.0,7.18098879,138.1613611,8.37,'11111222,11111222,11111222' 
TABS,ioos:station:TABS:H:1,2005-09-01T01:00:00Z,27.8674,-96.5433,4.0,5.131646909,138.9509246,6.28,'11111222,11111222,11111222' 
TABS,ioos:station:TABS:H:1,2005-09-01T01:30:00Z,27.8674,-96.5433,4.0,5.516239661,114.9858817,6.48,'11111222,11111222,11111222' 
TABS,ioos:station:TABS:H:1,2005-09-01T02:00:00Z,27.8674,-96.5433,4.0,5.460787489,115.9554057,6.24,'11111222,11111222,11111222' 
TABS,ioos:station:TABS:H:1,2005-09-01T02:30:00Z,27.8674,-96.5433,4.0,6.432363485,137.2053294,7.45,'11111222,11111222,11111222' 
TABS,ioos:station:TABS:H:1,2005-09-01T03:00:00Z,27.8674,-96.5433,4.0,6.082318637,123.8732953,7.2,'11111222,11111222,11111222' 
TABS,ioos:station:TABS:H:1,2005-09-01T03:30:00Z,27.8674,-96.5433,4.0,6.456004957,143.0594007,7.51,'11111222,11111222,11111222' 
TABS,ioos:station:TABS:H:1,2005-09-01T04:00:00Z,27.8674,-96.5433,4.0,5.631571717,136.8711164,6.58,'11111222,11111222,11111222' 
TABS,ioos:station:TABS:H:1,2005-09-01T04:30:00Z,27.8674,-96.5433,4.0,5.770424594,134.2981983,7.51,'11111222,11111222,11111222' 
TABS,ioos:station:TABS:H:1,2005-09-01T05:00:00Z,27.8674,-96.5433,4.0,5.491684623,139.7271868,6.4,'11111222,11111222,11111222' 
TABS,ioos:station:TABS:H:1,2005-09-01T05:30:00Z,27.8674,-96.5433,4.0,4.790511455,142.2931527,5.84,'11111222,11111222,11111222' 
TABS,ioos:station:TABS:H:1,2005-09-01T06:00:00Z,27.8674,-96.5433,4.0,4.934713771,151.8253415,6.06,'11111222,11111222,11111222' 
TABS,ioos:station:TABS:H:1,2005-09-01T06:30:00Z,27.8674,-96.5433,4.0,5.301848734,165.8067386,6.31,'11111222,11111222,11111222' 
TABS,ioos:station:TABS:H:1,2005-09-01T07:00:00Z,27.8674,-96.5433,4.0,4.650989142,167.4580702,6.08,'11111222,11111222,11111222' 
TABS,ioos:station:TABS:H:1,2005-09-01T07:30:00Z,27.8674,-96.5433,4.0,4.333739725,164.2001337,5.26,'11111222,11111222,11111222' 
TABS,ioos:station:TABS:H:1,2005-09-01T08:00:00Z,27.8674,-96.5433,4.0,4.388576079,173.4581876,5.39,'11111222,11111222,11111222' 
TABS,ioos:station:TABS:H:1,2005-09-01T08:30:00Z,27.8674,-96.5433,4.0,3.948075481,173.1632166,4.96,'11111222,11111222,11111222' 
TABS,ioos:station:TABS:H:1,2005-09-01T09:00:00Z,27.8674,-96.5433,4.0,3.781071277,181.3641348,4.85,'11111222,11111222,11111222' 
TABS,ioos:station:TABS:H:1,2005-09-01T09:30:00Z,27.8674,-96.5433,4.0,3.812571311,177.8958055,4.79,'11111222,11111222,11111222' 
TABS,ioos:station:TABS:H:1,2005-09-01T10:00:00Z,27.8674,-96.5433,4.0,3.693033983,175.1850435,4.63,'11111222,11111222,11111222' 
TABS,ioos:station:TABS:H:1,2005-09-01T10:30:00Z,27.8674,-96.5433,4.0,3.149936507,175.4480577,4.19,'11111222,11111222,11111222' 
TABS,ioos:station:TABS:H:1,2005-09-01T11:00:00Z,27.8674,-96.5433,4.0,2.837833681,168.4131335,3.68,'11111222,11111222,11111222' 
TABS,ioos:station:TABS:H:1,2005-09-01T11:30:00Z,27.8674,-96.5433,4.0,2.459857719,174.8690572,3.31,'11111222,11111222,11111222' 
TABS,ioos:station:TABS:H:1,2005-09-01T12:00:00Z,27.8674,-96.5433,4.0,2.626194966,171.900981,3.36,'11111222,11111222,11111222' 
TABS,ioos:station:TABS:H:1,2005-09-01T12:30:00Z,27.8674,-96.5433,4.0,2.863930865,176.9979449,3.48,'11111222,11111222,11111222' 
TABS,ioos:station:TABS:H:1,2005-09-01T13:00:00Z,27.8674,-96.5433,4.0,2.723031399,160.7002794,3.57,'11111222,11111222,11111222' 
TABS,ioos:station:TABS:H:1,2005-09-01T13:30:00Z,27.8674,-96.5433,4.0,1.920416621,144.3238857,2.52,'11111222,11111222,11111222' 
TABS,ioos:station:TABS:H:1,2005-09-01T14:00:00Z,27.8674,-96.5433,4.0,1.179025021,102.7400379,1.86,'11111222,11111222,11111222' 
TABS,ioos:station:TABS:H:1,2005-09-01T14:30:00Z,27.8674,-96.5433,4.0,1.390863041,80.06321237,1.95,'11111222,11111222,11111222' 
TABS,ioos:station:TABS:H:1,2005-09-01T15:00:00Z,27.8674,-96.5433,4.0,1.708800749,69.44358193,2.18,'11111222,11111222,11111222' 
TABS,ioos:station:TABS:H:1,2005-09-01T15:30:00Z,27.8674,-96.5433,4.0,2.169331694,71.73171559,3.23,'11111222,11111222,11111222' 
TABS,ioos:station:TABS:H:1,2005-09-01T16:00:00Z,27.8674,-96.5433,4.0,2.238861318,76.83235818,3.2,'11111222,11111222,11111222' 
TABS,ioos:station:TABS:H:1,2005-09-01T16:30:00Z,27.8674,-96.5433,4.0,2.908779813,83.48538403,3.88,'11111222,11111222,11111222' 
TABS,ioos:station:TABS:H:1,2005-09-01T17:00:00Z,27.8674,-96.5433,4.0,3.67555438,82.02381223,4.68,'11111222,11111222,11111222' 
TABS,ioos:station:TABS:H:1,2005-09-01T17:30:00Z,27.8674,-96.5433,4.0,3.71264057,87.83850465,4.44,'11111222,11111222,11111222' 
TABS,ioos:station:TABS:H:1,2005-09-01T18:00:00Z,27.8674,-96.5433,4.0,3.853751419,87.47128381,4.73,'11111222,11111222,11111222' 
TABS,ioos:station:TABS:H:1,2005-09-01T18:30:00Z,27.8674,-96.5433,4.0,3.990451102,90.86194464,5.25,'11111222,11111222,11111222' 
TABS,ioos:station:TABS:H:1,2005-09-01T19:00:00Z,27.8674,-96.5433,4.0,5.091188466,88.76155548,6.65,'11111222,11111222,11111222' 
TABS,ioos:station:TABS:H:1,2005-09-01T19:30:00Z,27.8674,-96.5433,4.0,4.603314024,82.1335291,5.96,'11111222,11111222,11111222' 
TABS,ioos:station:TABS:H:1,2005-09-01T20:00:00Z,27.8674,-96.5433,4.0,4.209798095,83.17844267,5.24,'11111222,11111222,11111222' 
TABS,ioos:station:TABS:H:1,2005-09-01T20:30:00Z,27.8674,-96.5433,4.0,4.661812952,88.40161715,6.18,'11111222,11111222,11111222' 
TABS,ioos:station:TABS:H:1,2005-09-01T21:00:00Z,27.8674,-96.5433,4.0,4.269449613,99.57303208,5.2,'11111222,11111222,11111222' 
TABS,ioos:station:TABS:H:1,2005-09-01T21:30:00Z,27.8674,-96.5433,4.0,5.037459677,110.4499207,6.23,'11111222,11111222,11111222' 
TABS,ioos:station:TABS:H:1,2005-09-01T22:00:00Z,27.8674,-96.5433,4.0,4.702871463,101.4058992,6.11,'11111222,11111222,11111222' 
TABS,ioos:station:TABS:H:1,2005-09-01T22:30:00Z,27.8674,-96.5433,4.0,4.955501993,97.77077605,6.1,'11111222,11111222,11111222' 
TABS,ioos:station:TABS:H:1,2005-09-01T23:00:00Z,27.8674,-96.5433,4.0,5.368472781,111.6432308,6.63,'11111222,11111222,11111222' 
TABS,ioos:station:TABS:H:1,2005-09-01T23:30:00Z,27.8674,-96.5433,4.0,4.908462081,112.6471703,5.78,'11111222,11111222,11111222' 
TABS,ioos:station:TABS:H:1,2005-09-02T00:00:00Z,27.8674,-96.5433,4.0,4.911018224,108.3984331,5.98,'11111222,11111222,11111222' 
TABS,ioos:station:TABS:H:1,2005-09-02T00:30:00Z,27.8674,-96.5433,4.0,4.858003705,122.2182585,5.96,'11111222,11111222,11111222' 
TABS,ioos:station:TABS:H:1,2005-09-02T01:00:00Z,27.8674,-96.5433,4.0,5.872997531,138.5207015,6.94,'11111222,11111222,11111222' 
TABS,ioos:station:TABS:H:1,2005-09-02T01:30:00Z,27.8674,-96.5433,4.0,4.72704982,137.2292606,5.93,'11111222,11111222,11111222' 
TABS,ioos:station:TABS:H:1,2005-09-02T02:00:00Z,27.8674,-96.5433,4.0,5.069960552,134.9204055,6.05,'11111222,11111222,11111222' 
TABS,ioos:station:TABS:H:1,2005-09-02T02:30:00Z,27.8674,-96.5433,4.0,4.485755232,133.0129361,5.7,'11111222,11111222,11111222' 
TABS,ioos:station:TABS:H:1,2005-09-02T03:00:00Z,27.8674,-96.5433,4.0,5.734675231,130.9700763,6.92,'11111222,11111222,11111222' 
TABS,ioos:station:TABS:H:1,2005-09-02T03:30:00Z,27.8674,-96.5433,4.0,5.187677708,116.56541,7.27,'11111222,11111222,11111222' 
TABS,ioos:station:TABS:H:1,2005-09-02T04:00:00Z,27.8674,-96.5433,4.0,5.152416909,106.1138015,6.14,'11111222,11111222,11111222' 
TABS,ioos:station:TABS:H:1,2005-09-02T04:30:00Z,27.8674,-96.5433,4.0,4.189367494,93.8326817,5.48,'11111222,11111222,11111222' 
TABS,ioos:station:TABS:H:1,2005-09-02T05:00:00Z,27.8674,-96.5433,4.0,3.82498366,103.4553387,4.92,'11111222,11111222,11111222' 
TABS,ioos:station:TABS:H:1,2005-09-02T05:30:00Z,27.8674,-96.5433,4.0,4.616199736,115.3996711,5.55,'11111222,11111222,11111222' 
TABS,ioos:station:TABS:H:1,2005-09-02T06:00:00Z,27.8674,-96.5433,4.0,5.198653672,131.7253894,6.13,'11111222,11111222,11111222' 
TABS,ioos:station:TABS:H:1,2005-09-02T06:30:00Z,27.8674,-96.5433,4.0,5.608029957,148.8613108,7.32,'11111222,11111222,11111222' 
TABS,ioos:station:TABS:H:1,2005-09-02T07:00:00Z,27.8674,-96.5433,4.0,6.770819744,153.5109091,7.74,'11111222,11111222,11111222' 
TABS,ioos:station:TABS:H:1,2005-09-02T07:30:00Z,27.8674,-96.5433,4.0,5.797766811,154.8938231,6.87,'11111222,11111222,11111222' 
TABS,ioos:station:TABS:H:1,2005-09-02T08:00:00Z,27.8674,-96.5433,4.0,5.928988109,168.0269707,7.51,'11111222,11111222,11111222' 
TABS,ioos:station:TABS:H:1,2005-09-02T08:30:00Z,27.8674,-96.5433,4.0,5.581621628,161.0783846,6.79,'11111222,11111222,11111222' 
TABS,ioos:station:TABS:H:1,2005-09-02T09:00:00Z,27.8674,-96.5433,4.0,4.364974227,162.8106661,6.07,'11111222,11111222,11111222' 
TABS,ioos:station:TABS:H:1,2005-09-02T09:30:00Z,27.8674,-96.5433,4.0,2.455218931,153.6439478,3.55,'11111222,11111222,11111222' 
TABS,ioos:station:TABS:H:1,2005-09-02T10:00:00Z,27.8674,-96.5433,4.0,2.304886114,155.6591774,3.2,'11111222,11111222,11111222' 
TABS,ioos:station:TABS:H:1,2005-09-02T10:30:00Z,27.8674,-96.5433,4.0,1.593141551,176.4014508,2.29,'11111222,11111222,11111222' 
TABS,ioos:station:TABS:H:1,2005-09-02T11:00:00Z,27.8674,-96.5433,4.0,1.78465683,138.1801384,2.58,'11111222,11111222,11111222' 
TABS,ioos:station:TABS:H:1,2005-09-02T11:30:00Z,27.8674,-96.5433,4.0,0.500899191,176.5665881,1.13,'11111222,11111222,11111222' 
TABS,ioos:station:TABS:H:1,2005-09-02T12:00:00Z,27.8674,-96.5433,4.0,1.779241411,157.1822301,2.45,'11111222,11111222,11111222' 
TABS,ioos:station:TABS:H:1,2005-09-02T12:30:00Z,27.8674,-96.5433,4.0,1.494657151,155.4928625,2.18,'11111222,11111222,11111222' 
TABS,ioos:station:TABS:H:1,2005-09-02T13:00:00Z,27.8674,-96.5433,4.0,1.770706074,91.61851167,2.6,'11111222,11111222,11111222' 
TABS,ioos:station:TABS:H:1,2005-09-02T13:30:00Z,27.8674,-96.5433,4.0,1.343018987,86.15713494,2.0,'11111222,11111222,11111222' 
TABS,ioos:station:TABS:H:1,2005-09-02T14:00:00Z,27.8674,-96.5433,4.0,2.652036953,36.56713808,3.42,'11111222,11111222,11111222' 
TABS,ioos:station:TABS:H:1,2005-09-02T14:30:00Z,27.8674,-96.5433,4.0,3.018078859,34.74288846,3.76,'11111222,11111222,11111222' 
TABS,ioos:station:TABS:H:1,2005-09-02T15:00:00Z,27.8674,-96.5433,4.0,2.781959741,56.88081414,3.84,'11111222,11111222,11111222' 
TABS,ioos:station:TABS:H:1,2005-09-02T15:30:00Z,27.8674,-96.5433,4.0,5.72,22.61960159,7.13,'11111222,11111222,11111222' 
TABS,ioos:station:TABS:H:1,2005-09-02T16:00:00Z,27.8674,-96.5433,4.0,4.149722882,24.03231744,4.88,'11111222,11111222,11111222' 
TABS,ioos:station:TABS:H:1,2005-09-02T16:30:00Z,27.8674,-96.5433,4.0,4.612125324,271.7394633,7.32,'11111222,11111222,11111222' 
TABS,ioos:station:TABS:H:1,2005-09-02T17:00:00Z,27.8674,-96.5433,4.0,10.37956165,237.1520833,14.47,'11111222,11111222,11111222' 
TABS,ioos:station:TABS:H:1,2005-09-02T17:30:00Z,27.8674,-96.5433,4.0,5.615140248,104.7543364,18.67,'11111222,11111222,11111222' 
TABS,ioos:station:TABS:H:1,2005-09-02T18:00:00Z,27.8674,-96.5433,4.0,3.585038354,176.9622303,6.16,'11111222,11111222,11111222' 
TABS,ioos:station:TABS:H:1,2005-09-02T18:30:00Z,27.8674,-96.5433,4.0,3.672383422,212.9978384,5.3,'11111222,11111222,11111222' 
TABS,ioos:station:TABS:H:1,2005-09-02T19:00:00Z,27.8674,-96.5433,4.0,2.522419473,174.3122325,3.92,'11111222,11111222,11111222' 
TABS,ioos:station:TABS:H:1,2005-09-02T19:30:00Z,27.8674,-96.5433,4.0,0.69,270.0,1.38,'11111222,11111222,11111222' 
TABS,ioos:station:TABS:H:1,2005-09-02T20:00:00Z,27.8674,-96.5433,4.0,1.681071087,214.8246182,2.94,'11111222,11111222,11111222' 
TABS,ioos:station:TABS:H:1,2005-09-02T20:30:00Z,27.8674,-96.5433,4.0,1.401178076,199.598976,1.99,'11111222,11111222,11111222' 
TABS,ioos:station:TABS:H:1,2005-09-02T21:00:00Z,27.8674,-96.5433,4.0,0.52,202.6200225,1.56,'11111222,11111222,11111222' 
TABS,ioos:station:TABS:H:1,2005-09-02T21:30:00Z,27.8674,-96.5433,4.0,1.874086444,216.3197071,3.19,'11111222,11111222,11111222' 
TABS,ioos:station:TABS:H:1,2005-09-02T22:00:00Z,27.8674,-96.5433,4.0,1.433875866,239.8586849,2.15,'11111222,11111222,11111222' 
TABS,ioos:station:TABS:H:1,2005-09-02T22:30:00Z,27.8674,-96.5433,4.0,2.476933588,308.4429636,3.45,'11111222,11111222,11111222' 
TABS,ioos:station:TABS:H:1,2005-09-02T23:00:00Z,27.8674,-96.5433,4.0,3.392653828,21.80114805,6.92,'11111222,11111222,11111222' 
TABS,ioos:station:TABS:H:1,2005-09-02T23:30:00Z,27.8674,-96.5433,4.0,4.828923275,51.13602894,5.93,'11111222,11111222,11111222' 
TABS,ioos:station:TABS:H:1,2005-09-03T00:00:00Z,27.8674,-96.5433,4.0,6.308890552,75.21444841,7.78,'11111222,11111222,11111222' 
TABS,ioos:station:TABS:H:1,2005-09-03T00:30:00Z,27.8674,-96.5433,4.0,5.78070065,89.10750444,7.0,'11111222,11111222,11111222' 
TABS,ioos:station:TABS:H:1,2005-09-03T01:00:00Z,27.8674,-96.5433,4.0,3.887261247,100.6743772,5.1,'11111222,11111222,11111222' 
TABS,ioos:station:TABS:H:1,2005-09-03T01:30:00Z,27.8674,-96.5433,4.0,4.050876448,99.09067658,4.8,'11111222,11111222,11111222' 
TABS,ioos:station:TABS:H:1,2005-09-03T02:00:00Z,27.8674,-96.5433,4.0,4.203046514,98.20761814,5.35,'11111222,11111222,11111222' 
TABS,ioos:station:TABS:H:1,2005-09-03T02:30:00Z,27.8674,-96.5433,4.0,4.513590588,103.9750565,5.64,'11111222,11111222,11111222' 
TABS,ioos:station:TABS:H:1,2005-09-03T03:00:00Z,27.8674,-96.5433,4.0,5.480775493,83.92492512,7.07,'11111222,11111222,11111222' 
TABS,ioos:station:TABS:H:1,2005-09-03T03:30:00Z,27.8674,-96.5433,4.0,6.130032626,90.18735548,7.2,'11111222,11111222,11111222' 
TABS,ioos:station:TABS:H:1,2005-09-03T04:00:00Z,27.8674,-96.5433,4.0,6.531592455,99.60693324,7.6,'11111222,11111222,11111222' 
TABS,ioos:station:TABS:H:1,2005-09-03T04:30:00Z,27.8674,-96.5433,4.0,6.429323448,96.34059784,8.05,'11111222,11111222,11111222' 
TABS,ioos:station:TABS:H:1,2005-09-03T05:00:00Z,27.8674,-96.5433,4.0,5.83089187,100.6743772,7.33,'11111222,11111222,11111222' 
TABS,ioos:station:TABS:H:1,2005-09-03T05:30:00Z,27.8674,-96.5433,4.0,5.759696173,107.2713249,7.07,'11111222,11111222,11111222' 
TABS,ioos:station:TABS:H:1,2005-09-03T06:00:00Z,27.8674,-96.5433,4.0,4.99009018,124.5502575,6.07,'11111222,11111222,11111222' 
TABS,ioos:station:TABS:H:1,2005-09-03T06:30:00Z,27.8674,-96.5433,4.0,4.999649988,134.2709904,6.12,'11111222,11111222,11111222' 
TABS,ioos:station:TABS:H:1,2005-09-03T07:00:00Z,27.8674,-96.5433,4.0,4.094410825,143.9420564,5.23,'11111222,11111222,11111222' 
TABS,ioos:station:TABS:H:1,2005-09-03T07:30:00Z,27.8674,-96.5433,4.0,3.273912033,160.181621,4.14,'11111222,11111222,11111222' 
TABS,ioos:station:TABS:H:1,2005-09-03T08:00:00Z,27.8674,-96.5433,4.0,5.525576893,113.6891171,7.79,'11111222,11111222,11111222' 
TABS,ioos:station:TABS:H:1,2005-09-03T08:30:00Z,27.8674,-96.5433,4.0,1.67725967,30.84630482,2.31,'11111222,11111222,11111222' 
TABS,ioos:station:TABS:H:1,2005-09-03T09:00:00Z,27.8674,-96.5433,4.0,1.002447006,85.99541551,2.15,'11111222,11111222,11111222' 
TABS,ioos:station:TABS:H:1,2005-09-03T09:30:00Z,27.8674,-96.5433,4.0,3.104834939,165.0688282,3.93,'11111222,11111222,11111222' 
TABS,ioos:station:TABS:H:1,2005-09-03T10:00:00Z,27.8674,-96.5433,4.0,2.699425865,166.0669568,3.47,'11111222,11111222,11111222' 
TABS,ioos:station:TABS:H:1,2005-09-03T10:30:00Z,27.8674,-96.5433,4.0,4.074162491,158.0943933,6.11,'11111222,11111222,11111222' 
TABS,ioos:station:TABS:H:1,2005-09-03T11:00:00Z,27.8674,-96.5433,4.0,4.420689991,99.50533583,6.0,'11111222,11111222,11111222' 
TABS,ioos:station:TABS:H:1,2005-09-03T11:30:00Z,27.8674,-96.5433,4.0,2.856308807,53.97228995,3.91,'11111222,11111222,11111222' 
TABS,ioos:station:TABS:H:1,2005-09-03T12:00:00Z,27.8674,-96.5433,4.0,2.591061559,351.1191512,3.6,'11111222,11111222,11111222' 
TABS,ioos:station:TABS:H:1,2005-09-03T12:30:00Z,27.8674,-96.5433,4.0,2.307054399,330.1009576,2.79,'11111222,11111222,11111222' 
TABS,ioos:station:TABS:H:1,2005-09-03T13:00:00Z,27.8674,-96.5433,4.0,3.789577813,327.6098449,4.47,'11111222,11111222,11111222' 
TABS,ioos:station:TABS:H:1,2005-09-03T13:30:00Z,27.8674,-96.5433,4.0,4.304811262,328.4882753,4.97,'11111222,11111222,11111222' 
TABS,ioos:station:TABS:H:1,2005-09-03T14:00:00Z,27.8674,-96.5433,4.0,3.87197624,349.7346731,4.6,'11111222,11111222,11111222' 
TABS,ioos:station:TABS:H:1,2005-09-03T14:30:00Z,27.8674,-96.5433,4.0,4.483971454,12.36225305,5.67,'11111222,11111222,11111222' 
TABS,ioos:station:TABS:H:1,2005-09-03T15:00:00Z,27.8674,-96.5433,4.0,5.02380334,16.7754617,6.24,'11111222,11111222,11111222' 
TABS,ioos:station:TABS:H:1,2005-09-03T15:30:00Z,27.8674,-96.5433,4.0,6.251631787,23.57138607,7.52,'11111222,11111222,11111222' 
TABS,ioos:station:TABS:H:1,2005-09-03T16:00:00Z,27.8674,-96.5433,4.0,5.419566403,41.48397872,6.41,'11111222,11111222,11111222' 
TABS,ioos:station:TABS:H:1,2005-09-03T16:30:00Z,27.8674,-96.5433,4.0,5.593755447,45.79641184,6.86,'11111222,11111222,11111222' 
TABS,ioos:station:TABS:H:1,2005-09-03T17:00:00Z,27.8674,-96.5433,4.0,7.515217894,50.99456747,9.28,'11111222,11111222,11111222' 
TABS,ioos:station:TABS:H:1,2005-09-03T17:30:00Z,27.8674,-96.5433,4.0,6.877237818,59.40738272,8.57,'11111222,11111222,11111222' 
TABS,ioos:station:TABS:H:1,2005-09-03T18:00:00Z,27.8674,-96.5433,4.0,7.575882787,79.96533626,9.1,'11111222,11111222,11111222' 
TABS,ioos:station:TABS:H:1,2005-09-03T18:30:00Z,27.8674,-96.5433,4.0,7.169616447,85.76024248,8.2,'11111222,11111222,11111222' 
TABS,ioos:station:TABS:H:1,2005-09-03T19:00:00Z,27.8674,-96.5433,4.0,6.856566196,87.49188322,7.91,'11111222,11111222,11111222' 
TABS,ioos:station:TABS:H:1,2005-09-03T19:30:00Z,27.8674,-96.5433,4.0,6.794262285,86.28648444,8.3,'11111222,11111222,11111222' 
TABS,ioos:station:TABS:H:1,2005-09-03T20:00:00Z,27.8674,-96.5433,4.0,6.391306596,93.40898737,7.42,'11111222,11111222,11111222' 
TABS,ioos:station:TABS:H:1,2005-09-03T20:30:00Z,27.8674,-96.5433,4.0,7.326281458,94.85497624,8.45,'11111222,11111222,11111222' 
TABS,ioos:station:TABS:H:1,2005-09-03T21:00:00Z,27.8674,-96.5433,4.0,7.247068373,92.53117802,8.82,'11111222,11111222,11111222' 
TABS,ioos:station:TABS:H:1,2005-09-03T21:30:00Z,27.8674,-96.5433,4.0,6.978782129,92.87511905,8.29,'11111222,11111222,11111222' 
TABS,ioos:station:TABS:H:1,2005-09-03T22:00:00Z,27.8674,-96.5433,4.0,7.528990636,101.0267613,8.5,'11111222,11111222,11111222' 
TABS,ioos:station:TABS:H:1,2005-09-03T22:30:00Z,27.8674,-96.5433,4.0,6.67089949,98.36128895,7.78,'11111222,11111222,11111222' 
TABS,ioos:station:TABS:H:1,2005-09-03T23:00:00Z,27.8674,-96.5433,4.0,6.629509786,102.1917289,8.33,'11111222,11111222,11111222' 
TABS,ioos:station:TABS:H:1,2005-09-03T23:30:00Z,27.8674,-96.5433,4.0,7.107981429,98.49529453,8.77,'11111222,11111222,11111222' 
TABS,ioos:station:TABS:H:1,2005-09-04T00:00:00Z,27.8674,-96.5433,4.0,6.68570116,95.92418488,8.35,'11111222,11111222,11111222' 
TABS,ioos:station:TABS:H:1,2005-09-04T00:30:00Z,27.8674,-96.5433,4.0,6.370502335,99.66972372,8.3,'11111222,11111222,11111222' 
TABS,ioos:station:TABS:H:1,2005-09-04T01:00:00Z,27.8674,-96.5433,4.0,6.455052285,109.3616331,7.53,'11111222,11111222,11111222' 
TABS,ioos:station:TABS:H:1,2005-09-04T01:30:00Z,27.8674,-96.5433,4.0,5.903388857,116.1313604,7.18,'11111222,11111222,11111222' 
TABS,ioos:station:TABS:H:1,2005-09-04T02:00:00Z,27.8674,-96.5433,4.0,5.335410012,102.4476646,6.61,'11111222,11111222,11111222' 
TABS,ioos:station:TABS:H:1,2005-09-04T02:30:00Z,27.8674,-96.5433,4.0,5.536397746,84.40227235,6.69,'11111222,11111222,11111222' 
TABS,ioos:station:TABS:H:1,2005-09-04T03:00:00Z,27.8674,-96.5433,4.0,5.640868727,86.4422608,6.71,'11111222,11111222,11111222' 
TABS,ioos:station:TABS:H:1,2005-09-04T03:30:00Z,27.8674,-96.5433,4.0,5.609135406,86.72909881,6.6,'11111222,11111222,11111222' 
TABS,ioos:station:TABS:H:1,2005-09-04T04:00:00Z,27.8674,-96.5433,4.0,6.007936418,77.69836839,7.24,'11111222,11111222,11111222' 
TABS,ioos:station:TABS:H:1,2005-09-04T04:30:00Z,27.8674,-96.5433,4.0,5.740217766,89.50050072,6.66,'11111222,11111222,11111222' 
TABS,ioos:station:TABS:H:1,2005-09-04T05:00:00Z,27.8674,-96.5433,4.0,5.644935784,95.38781346,6.64,'11111222,11111222,11111222' 
TABS,ioos:station:TABS:H:1,2005-09-04T05:30:00Z,27.8674,-96.5433,4.0,5.723862332,105.7120333,6.63,'11111222,11111222,11111222' 
TABS,ioos:station:TABS:H:1,2005-09-04T06:00:00Z,27.8674,-96.5433,4.0,4.629524814,115.4583855,5.89,'11111222,11111222,11111222' 
TABS,ioos:station:TABS:H:1,2005-09-04T06:30:00Z,27.8674,-96.5433,4.0,4.171390655,109.1737436,5.28,'11111222,11111222,11111222' 
TABS,ioos:station:TABS:H:1,2005-09-04T07:00:00Z,27.8674,-96.5433,4.0,4.358371255,103.9409795,5.54,'11111222,11111222,11111222' 
TABS,ioos:station:TABS:H:1,2005-09-04T07:30:00Z,27.8674,-96.5433,4.0,4.327817002,102.8163931,5.18,'11111222,11111222,11111222' 
TABS,ioos:station:TABS:H:1,2005-09-04T08:00:00Z,27.8674,-96.5433,4.0,3.918469089,112.5077564,5.05,'11111222,11111222,11111222' 
TABS,ioos:station:TABS:H:1,2005-09-04T08:30:00Z,27.8674,-96.5433,4.0,3.641771547,97.57425333,4.78,'11111222,11111222,11111222' 
TABS,ioos:station:TABS:H:1,2005-09-04T09:00:00Z,27.8674,-96.5433,4.0,3.374996296,105.6426308,4.57,'11111222,11111222,11111222' 
TABS,ioos:station:TABS:H:1,2005-09-04T09:30:00Z,27.8674,-96.5433,4.0,2.542616762,105.5124334,3.36,'11111222,11111222,11111222' 
TABS,ioos:station:TABS:H:1,2005-09-04T10:00:00Z,27.8674,-96.5433,4.0,2.976071236,86.33918909,3.93,'11111222,11111222,11111222' 
TABS,ioos:station:TABS:H:1,2005-09-04T10:30:00Z,27.8674,-96.5433,4.0,3.401543767,85.27791311,4.29,'11111222,11111222,11111222' 
TABS,ioos:station:TABS:H:1,2005-09-04T11:00:00Z,27.8674,-96.5433,4.0,3.442165016,96.50603235,4.4,'11111222,11111222,11111222' 
TABS,ioos:station:TABS:H:1,2005-09-04T11:30:00Z,27.8674,-96.5433,4.0,3.565305036,95.31123294,4.54,'11111222,11111222,11111222' 
TABS,ioos:station:TABS:H:1,2005-09-04T12:00:00Z,27.8674,-96.5433,4.0,3.223988213,95.33964524,4.66,'11111222,11111222,11111222' 
TABS,ioos:station:TABS:H:1,2005-09-04T12:30:00Z,27.8674,-96.5433,4.0,3.601735693,76.34919187,4.53,'11111222,11111222,11111222' 
TABS,ioos:station:TABS:H:1,2005-09-04T13:00:00Z,27.8674,-96.5433,4.0,4.099573149,86.08324943,5.09,'11111222,11111222,11111222' 
TABS,ioos:station:TABS:H:1,2005-09-04T13:30:00Z,27.8674,-96.5433,4.0,4.276037886,73.98059938,5.41,'11111222,11111222,11111222' 
TABS,ioos:station:TABS:H:1,2005-09-04T14:00:00Z,27.8674,-96.5433,4.0,3.992605665,68.70454101,5.32,'11111222,11111222,11111222' 
TABS,ioos:station:TABS:H:1,2005-09-04T14:30:00Z,27.8674,-96.5433,4.0,4.06162529,70.13704003,5.05,'11111222,11111222,11111222' 
TABS,ioos:station:TABS:H:1,2005-09-04T15:00:00Z,27.8674,-96.5433,4.0,4.361983494,68.19822058,5.23,'11111222,11111222,11111222' 
TABS,ioos:station:TABS:H:1,2005-09-04T15:30:00Z,27.8674,-96.5433,4.0,4.347620039,73.56545431,5.34,'11111222,11111222,11111222' 
TABS,ioos:station:TABS:H:1,2005-09-04T16:00:00Z,27.8674,-96.5433,4.0,4.759464256,56.74363996,6.81,'11111222,11111222,11111222' 
TABS,ioos:station:TABS:H:1,2005-09-04T16:30:00Z,27.8674,-96.5433,4.0,6.172171417,52.70275034,7.33,'11111222,11111222,11111222' 
TABS,ioos:station:TABS:H:1,2005-09-04T17:00:00Z,27.8674,-96.5433,4.0,7.438736452,56.73684301,8.49,'11111222,11111222,11111222' 
TABS,ioos:station:TABS:H:1,2005-09-04T17:30:00Z,27.8674,-96.5433,4.0,6.247511505,48.37375317,7.58,'11111222,11111222,11111222' 
TABS,ioos:station:TABS:H:1,2005-09-04T18:00:00Z,27.8674,-96.5433,4.0,5.635689842,54.53289481,6.78,'11111222,11111222,11111222' 
TABS,ioos:station:TABS:H:1,2005-09-04T18:30:00Z,27.8674,-96.5433,4.0,5.791105249,48.99058808,7.08,'11111222,11111222,11111222' 
TABS,ioos:station:TABS:H:1,2005-09-04T19:00:00Z,27.8674,-96.5433,4.0,6.450069767,46.13037262,7.78,'11111222,11111222,11111222' 
TABS,ioos:station:TABS:H:1,2005-09-04T19:30:00Z,27.8674,-96.5433,4.0,6.027445562,48.29508991,7.22,'11111222,11111222,11111222' 
TABS,ioos:station:TABS:H:1,2005-09-04T20:00:00Z,27.8674,-96.5433,4.0,5.736009066,48.10898449,7.08,'11111222,11111222,11111222' 
TABS,ioos:station:TABS:H:1,2005-09-04T20:30:00Z,27.8674,-96.5433,4.0,5.727634765,55.67145699,7.03,'11111222,11111222,11111222' 
TABS,ioos:station:TABS:H:1,2005-09-04T21:00:00Z,27.8674,-96.5433,4.0,4.926926019,67.4423852,6.35,'11111222,11111222,11111222' 